CDT,Max TemperatureF,Mean TemperatureF,Min TemperatureF,Max Dew PointF,MeanDew PointF,Min DewpointF,Max Humidity, Mean Humidity, Min Humidity, Max Sea Level PressureIn, Mean Sea Level PressureIn, Min Sea Level PressureIn, Max VisibilityMiles, Mean VisibilityMiles, Min VisibilityMiles, Max Wind SpeedMPH, Mean Wind SpeedMPH, Max Gust SpeedMPH,PrecipitationIn, CloudCover, Events, WindDirDegrees
2013-10-1,84,72,60,75,65,61,100,85,49,29.99,29.94,29.88,10,8,2,13,7,20,0.00,1,,185
2013-10-2,83,72,62,76,71,63,100,93,68,30.04,29.96,29.90,10,9,3,16,5,22,0.19,3,Rain-Thunderstorm,178
2013-10-3,84,76,67,75,70,68,100,90,67,29.91,29.87,29.78,10,9,2,20,11,25,0.29,2,Rain-Thunderstorm,182
2013-10-4,86,76,66,73,68,66,100,80,52,29.89,29.84,29.80,10,10,10,21,12,28,0.00,4,,175
2013-10-5,72,58,44,68,47,39,93,71,43,30.03,29.95,29.88,10,10,8,23,10,26,0.12,4,Rain-Thunderstorm,273
2013-10-6,61,50,42,45,40,35,85,67,49,30.01,29.92,29.88,10,10,10,17,10,24,0.00,4,,263
2013-10-7,71,56,42,47,44,40,93,68,37,30.16,30.09,29.99,10,10,7,7,5,,0.00,0,,235
2013-10-8,74,60,46,52,48,45,94,68,38,30.16,30.11,30.06,10,10,10,16,8,18,0.00,0,,173
2013-10-9,75,62,48,50,48,42,100,68,31,30.14,30.09,30.05,10,10,10,10,8,,0.00,0,,156
2013-10-10,78,64,50,55,52,48,93,67,39,30.10,30.02,29.92,10,10,10,12,7,21,0.00,0,,166
2013-10-11,79,68,57,64,60,55,94,78,58,29.93,29.88,29.81,10,10,10,22,12,25,0.00,2,,176
2013-10-12,71,58,46,63,50,40,94,73,32,30.26,30.05,29.88,10,7,2,16,9,26,0.15,2,Rain-Thunderstorm,299
2013-10-13,72,56,42,43,38,34,87,62,25,30.42,30.33,30.25,10,5,0,14,2,18,0.00,0,,63
2013-10-14,68,57,47,60,50,36,94,71,40,30.32,30.07,29.93,10,10,7,16,7,21,0.02,2,Rain,133
2013-10-15,62,55,45,61,51,39,97,79,49,30.07,29.96,29.88,10,9,3,14,10,21,0.24,5,Rain,259
2013-10-16,58,50,41,48,42,38,95,75,52,30.12,30.05,30.01,10,10,10,12,4,,0.06,5,Rain,271
2013-10-17,65,53,41,48,44,40,100,76,41,30.02,29.98,29.91,10,10,10,15,6,21,0.01,3,Rain,221
2013-10-18,52,45,38,41,37,32,95,84,49,30.14,30.09,30.01,10,10,10,13,8,,0.05,5,Rain,322
2013-10-19,58,46,35,41,37,32,95,80,49,30.08,30.02,29.93,10,10,8,15,10,24,0.00,4,,229
2013-10-20,70,56,43,42,39,37,82,62,32,29.93,29.88,29.83,10,10,10,20,13,29,0.00,1,,211
2013-10-21,54,46,37,43,36,31,86,66,41,30.13,30.06,29.93,10,10,10,16,8,23,0.00,3,,321
2013-10-22,63,50,37,45,37,32,86,66,41,30.10,29.99,29.88,10,10,10,23,11,30,0.00,5,,275
2013-10-23,51,41,31,35,31,26,90,70,46,30.21,30.14,30.09,10,10,7,9,5,,0.00,4,,282
2013-10-24,44,37,28,37,28,23,91,67,40,30.46,30.35,30.17,10,8,2,16,6,22,0.00,1,,337
2013-10-25,56,40,24,32,25,21,88,69,27,30.51,30.41,30.19,10,7,2,14,4,,0.00,0,,201
2013-10-26,63,48,35,42,33,27,76,61,31,30.19,30.13,30.08,10,10,10,15,11,21,0.00,0,,271
2013-10-27,62,44,26,32,28,23,90,58,27,30.16,30.07,29.97,10,10,6,10,4,,0.00,0,,195
2013-10-28,64,48,33,52,40,31,89,78,59,30.19,30.11,30.01,10,8,3,9,4,,0.00,1,,165
2013-10-29,64,57,50,63,57,46,100,94,82,30.15,30.03,29.96,10,6,2,12,7,,0.59,8,Rain,154
2013-10-30,70,66,62,66,64,61,100,94,83,29.99,29.87,29.76,10,8,1,29,12,38,0.91,7,Rain-Thunderstorm,200
2013-10-31,62,54,46,61,51,44,97,92,87,29.75,29.60,29.51,10,9,5,14,10,,0.71,6,Rain-Thunderstorm,278